| time (UTC) | temp C | wind direction | speed KPH | gust KPH | rain 1hr cm | rain 24hr cm | rain mn cm | humidity % | barometer mb |
| 20260505065448 | 12 | 111 | 0.0 | 0.0 | 0.00 | 0.00 | 0.00 | 82 | 1013.1 |
| 20260505064945 | 12 | 110 | 0.0 | 1.6 | 0.00 | 0.00 | 0.00 | 81 | 1013.1 |
| 20260505064442 | 12 | 113 | 0.0 | 1.6 | 0.00 | 0.00 | 0.00 | 82 | 1013.0 |
| 20260505063940 | 12 | 108 | 0.0 | 0.0 | 0.00 | 0.00 | 0.00 | 81 | 1012.9 |
| 20260505063436 | 12 | 108 | 0.0 | 1.6 | 0.00 | 0.00 | 0.00 | 80 | 1013.1 |
| 20260505062933 | 12 | 102 | 0.0 | 0.0 | 0.00 | 0.00 | 0.00 | 79 | 1013.1 |
| 20260505062430 | 12 | 102 | 0.0 | 0.0 | 0.00 | 0.00 | 0.00 | 78 | 1013.1 |
| 20260505061927 | 13 | 102 | 0.0 | 0.0 | 0.00 | 0.00 | 0.00 | 77 | 1013.1 |
| 20260505061425 | 13 | 110 | 0.0 | 0.0 | 0.00 | 0.00 | 0.00 | 75 | 1013.1 |
| 20260505060922 | 13 | 98 | 0.0 | 0.0 | 0.00 | 0.00 | 0.00 | 73 | 1013.1 |
| 20260505060419 | 14 | 98 | 0.0 | 1.6 | 0.00 | 0.00 | 0.00 | 71 | 1013.1 |
| 20260505055916 | 14 | 102 | 0.0 | 1.6 | 0.00 | 0.00 | 0.00 | 70 | 1013.2 |
| 20260505055412 | 15 | 101 | 0.0 | 0.0 | 0.00 | 0.00 | 0.00 | 69 | 1013.1 |
| 20260505054909 | 15 | 92 | 0.0 | 1.6 | 0.00 | 0.00 | 0.00 | 69 | 1013.1 |
| 20260505054406 | 15 | 99 | 0.0 | 3.2 | 0.00 | 0.00 | 0.00 | 69 | 1013.3 |
| 20260505053904 | 15 | 90 | 0.0 | 1.6 | 0.00 | 0.00 | 0.00 | 69 | 1013.3 |
| 20260505053401 | 15 | 137 | 1.6 | 3.2 | 0.00 | 0.00 | 0.00 | 69 | 1013.4 |
| 20260505052857 | 14 | 165 | 3.2 | 4.8 | 0.00 | 0.00 | 0.00 | 70 | 1013.3 |
| 20260505052354 | 15 | 103 | 0.0 | 0.0 | 0.00 | 0.00 | 0.00 | 70 | 1013.3 |
| 20260505051852 | 15 | 116 | 0.0 | 1.6 | 0.00 | 0.00 | 0.00 | 70 | 1013.3 |
| 20260505051349 | 15 | 121 | 0.0 | 3.2 | 0.00 | 0.00 | 0.00 | 70 | 1013.3 |
| 20260505050847 | 15 | 131 | 1.6 | 1.6 | 0.00 | 0.00 | 0.00 | 70 | 1013.2 |
| 20260505050345 | 15 | 119 | 0.0 | 1.6 | 0.00 | 0.00 | 0.00 | 69 | 1013.1 |
| 20260505041312 | 15 | 102 | 1.6 | 3.2 | 0.00 | 0.00 | 0.00 | 67 | 1013.4 |
| 20260505040809 | 15 | 95 | 0.0 | 3.2 | 0.00 | 0.00 | 0.00 | 67 | 1013.2 |
| 20260505040307 | 15 | 127 | 1.6 | 3.2 | 0.00 | 0.00 | 0.00 | 67 | 1013.4 |
| 20260505035803 | 15 | 123 | 3.2 | 3.2 | 0.00 | 0.00 | 0.00 | 67 | 1013.4 |
| 20260505035259 | 15 | 187 | 3.2 | 4.8 | 0.00 | 0.00 | 0.00 | 67 | 1013.3 |
| 20260505034757 | 15 | 98 | 1.6 | 3.2 | 0.00 | 0.00 | 0.00 | 67 | 1013.3 |
| 20260505034253 | 15 | 185 | 3.2 | 4.8 | 0.00 | 0.00 | 0.00 | 67 | 1013.2 |
| 20260505033750 | 15 | 105 | 0.0 | 4.8 | 0.00 | 0.00 | 0.00 | 67 | 1013.4 |
| 20260505033248 | 15 | 110 | 0.0 | 1.6 | 0.00 | 0.00 | 0.00 | 66 | 1013.1 |
| 20260505032745 | 15 | 100 | 0.0 | 1.6 | 0.00 | 0.00 | 0.00 | 65 | 1013.3 |
| 20260505032241 | 15 | 90 | 0.0 | 1.6 | 0.00 | 0.00 | 0.00 | 65 | 1013.5 |
| 20260505031739 | 15 | 98 | 1.6 | 3.2 | 0.00 | 0.00 | 0.00 | 64 | 1013.6 |
| 20260505031235 | 15 | 85 | 0.0 | 1.6 | 0.00 | 0.00 | 0.00 | 63 | 1013.6 |
| 20260505030732 | 15 | 131 | 0.0 | 3.2 | 0.00 | 0.00 | 0.00 | 63 | 1013.6 |
| 20260505030228 | 15 | 107 | 0.0 | 3.2 | 0.00 | 0.00 | 0.00 | 62 | 1013.6 |
| 20260505025724 | 15 | 88 | 1.6 | 4.8 | 0.00 | 0.00 | 0.00 | 61 | 1013.3 |
| 20260505025222 | 16 | 96 | 0.0 | 3.2 | 0.00 | 0.00 | 0.00 | 60 | 1013.4 |
| 20260505024720 | 16 | 162 | 3.2 | 4.8 | 0.00 | 0.00 | 0.00 | 60 | 1013.6 |
| 20260505024217 | 16 | 94 | 1.6 | 6.4 | 0.00 | 0.00 | 0.00 | 59 | 1013.7 |
| 20260505023714 | 16 | 125 | 1.6 | 6.4 | 0.00 | 0.00 | 0.00 | 59 | 1013.5 |
| 20260505023212 | 16 | 168 | 3.2 | 6.4 | 0.00 | 0.00 | 0.00 | 58 | 1013.5 |
| 20260505022709 | 16 | 167 | 3.2 | 3.2 | 0.00 | 0.00 | 0.00 | 58 | 1013.7 |
| 20260505022206 | 16 | 105 | 0.0 | 4.8 | 0.00 | 0.00 | 0.00 | 57 | 1013.7 |
| 20260505021702 | 16 | 107 | 3.2 | 4.8 | 0.00 | 0.00 | 0.00 | 56 | 1013.7 |
| 20260505021159 | 16 | 100 | 0.0 | 6.4 | 0.00 | 0.00 | 0.00 | 56 | 1013.6 |
| 20260505020655 | 16 | 103 | 0.0 | 1.6 | 0.00 | 0.00 | 0.00 | 55 | 1013.7 |
| 20260505020151 | 16 | 127 | 4.8 | 4.8 | 0.00 | 0.00 | 0.00 | 54 | 1013.8 |
| 20260505015648 | 17 | 149 | 1.6 | 3.2 | 0.00 | 0.00 | 0.00 | 53 | 1013.6 |
| 20260505015145 | 17 | 117 | 1.6 | 9.7 | 0.00 | 0.00 | 0.00 | 52 | 1013.5 |
| 20260505014642 | 17 | 113 | 0.0 | 4.8 | 0.00 | 0.00 | 0.00 | 50 | 1013.7 |
| 20260505014139 | 17 | 134 | 4.8 | 6.4 | 0.00 | 0.00 | 0.00 | 49 | 1013.7 |
| 20260505013636 | 17 | 114 | 4.8 | 11.3 | 0.00 | 0.00 | 0.00 | 47 | 1013.7 |
| 20260505013133 | 17 | 93 | 1.6 | 6.4 | 0.00 | 0.00 | 0.00 | 46 | 1013.6 |
| 20260505012632 | 17 | 97 | 1.6 | 4.8 | 0.00 | 0.00 | 0.00 | 45 | 1013.5 |
| 20260505012128 | 17 | 140 | 6.4 | 6.4 | 0.00 | 0.00 | 0.00 | 44 | 1013.5 |
| 20260505011624 | 18 | 118 | 1.6 | 3.2 | 0.00 | 0.00 | 0.00 | 43 | 1013.5 |
| 20260505011121 | 18 | 95 | 1.6 | 4.8 | 0.00 | 0.00 | 0.00 | 42 | 1013.4 |
| 20260505010616 | 17 | 183 | 6.4 | 9.7 | 0.00 | 0.00 | 0.00 | 43 | 1013.3 |
| 20260505010113 | 18 | 151 | 1.6 | 3.2 | 0.00 | 0.00 | 0.00 | 42 | 1013.2 |
| 20260505005609 | 18 | 192 | 3.2 | 4.8 | 0.00 | 0.00 | 0.00 | 42 | 1013.2 |
| 20260505005107 | 18 | 85 | 0.0 | 1.6 | 0.00 | 0.00 | 0.00 | 42 | 1013.0 |
| 20260505004604 | 18 | 169 | 3.2 | 4.8 | 0.00 | 0.00 | 0.00 | 41 | 1013.1 |
| 20260505004101 | 18 | 114 | 1.6 | 1.6 | 0.00 | 0.00 | 0.00 | 41 | 1013.0 |
| 20260505003558 | 18 | 118 | 0.0 | 1.6 | 0.00 | 0.00 | 0.00 | 41 | 1012.7 |
| 20260505003055 | 18 | 141 | 1.6 | 4.8 | 0.00 | 0.00 | 0.00 | 40 | 1012.8 |
| 20260505002555 | 18 | 103 | 0.0 | 1.6 | 0.00 | 0.00 | 0.00 | 40 | 1012.9 |
| 20260505002055 | 19 | 110 | 0.0 | 1.6 | 0.00 | 0.00 | 0.00 | 39 | 1012.8 |
| 20260505001551 | 20 | 108 | 0.0 | 1.6 | 0.00 | 0.00 | 0.00 | 38 | 1012.4 |
| 20260505001048 | 20 | 135 | 1.6 | 3.2 | 0.00 | 0.00 | 0.00 | 38 | 1012.7 |
| 20260505000546 | 20 | 182 | 3.2 | 6.4 | 0.00 | 0.00 | 0.00 | 37 | 1012.6 |
| 20260505000044 | 20 | 115 | 0.0 | 3.2 | 0.00 | 0.00 | 0.00 | 37 | 1012.6 |
| 20260504235540 | 20 | 107 | 1.6 | 6.4 | 0.00 | 0.00 | 0.00 | 35 | 1012.4 |
| 20260504235037 | 20 | 199 | 3.2 | 9.7 | 0.00 | 0.00 | 0.00 | 35 | 1012.6 |
| 20260504234534 | 21 | 147 | 1.6 | 4.8 | 0.00 | 0.00 | 0.00 | 35 | 1012.4 |
| 20260504234031 | 21 | 128 | 3.2 | 3.2 | 0.00 | 0.00 | 0.00 | 34 | 1012.4 |
| 20260504233526 | 21 | 158 | 4.8 | 12.9 | 0.00 | 0.00 | 0.00 | 34 | 1012.4 |
| 20260504233023 | 21 | 104 | 0.0 | 3.2 | 0.00 | 0.00 | 0.00 | 34 | 1012.4 |
| 20260504232520 | 21 | 130 | 3.2 | 11.3 | 0.00 | 0.00 | 0.00 | 32 | 1012.4 |
| 20260504232018 | 21 | 145 | 1.6 | 6.4 | 0.00 | 0.00 | 0.00 | 32 | 1012.4 |
| 20260504231514 | 21 | 133 | 3.2 | 9.7 | 0.00 | 0.00 | 0.00 | 32 | 1012.3 |
| 20260504231010 | 21 | 86 | 1.6 | 6.4 | 0.00 | 0.00 | 0.00 | 32 | 1012.1 |
| 20260504230507 | 21 | 259 | 3.2 | 4.8 | 0.00 | 0.00 | 0.00 | 32 | 1012.3 |
| 20260504230006 | 21 | 281 | 8.0 | 12.9 | 0.00 | 0.00 | 0.00 | 31 | 1012.2 |
| 20260504225502 | 22 | 282 | 8.0 | 9.7 | 0.00 | 0.00 | 0.00 | 31 | 1012.4 |
| 20260504225000 | 22 | 282 | 3.2 | 9.7 | 0.00 | 0.00 | 0.00 | 31 | 1012.4 |
| 20260504224456 | 22 | 280 | 4.8 | 11.3 | 0.00 | 0.00 | 0.00 | 32 | 1012.4 |
| 20260504223953 | 22 | 109 | 0.0 | 3.2 | 0.00 | 0.00 | 0.00 | 31 | 1012.3 |
| 20260504223449 | 22 | 117 | 3.2 | 4.8 | 0.00 | 0.00 | 0.00 | 32 | 1012.4 |
| 20260504222945 | 22 | 128 | 4.8 | 14.5 | 0.00 | 0.00 | 0.00 | 31 | 1012.4 |
| 20260504222443 | 22 | 173 | 1.6 | 12.9 | 0.00 | 0.00 | 0.00 | 31 | 1012.3 |
| 20260504221940 | 22 | 123 | 3.2 | 9.7 | 0.00 | 0.00 | 0.00 | 31 | 1012.3 |
| 20260504221437 | 22 | 127 | 1.6 | 20.9 | 0.00 | 0.00 | 0.00 | 30 | 1012.3 |
| 20260504220934 | 22 | 168 | 4.8 | 12.9 | 0.00 | 0.00 | 0.00 | 30 | 1012.5 |
| 20260504220430 | 22 | 102 | 6.4 | 14.5 | 0.00 | 0.00 | 0.00 | 29 | 1012.3 |
| 20260504215928 | 22 | 244 | 3.2 | 11.3 | 0.00 | 0.00 | 0.00 | 29 | 1012.6 |
| 20260504215424 | 22 | 253 | 12.9 | 14.5 | 0.00 | 0.00 | 0.00 | 28 | 1012.5 |
| 20260504214921 | 22 | 146 | 1.6 | 14.5 | 0.00 | 0.00 | 0.00 | 29 | 1012.5 |
| 20260504214417 | 23 | 255 | 4.8 | 14.5 | 0.00 | 0.00 | 0.00 | 29 | 1012.6 |
| 20260504213914 | 23 | 268 | 4.8 | 17.7 | 0.00 | 0.00 | 0.00 | 28 | 1012.5 |
| 20260504213410 | 23 | 322 | 9.7 | 16.1 | 0.00 | 0.00 | 0.00 | 28 | 1012.5 |
| 20260504212908 | 23 | 228 | 1.6 | 9.7 | 0.00 | 0.00 | 0.00 | 29 | 1012.6 |
| 20260504212403 | 23 | 136 | 3.2 | 6.4 | 0.00 | 0.00 | 0.00 | 29 | 1012.5 |
| 20260504211901 | 23 | 342 | 6.4 | 16.1 | 0.00 | 0.00 | 0.00 | 28 | 1012.4 |
| 20260504211357 | 23 | 206 | 6.4 | 16.1 | 0.00 | 0.00 | 0.00 | 28 | 1012.5 |
| 20260504210855 | 23 | 265 | 3.2 | 6.4 | 0.00 | 0.00 | 0.00 | 29 | 1012.4 |
| 20260504210351 | 23 | 131 | 4.8 | 12.9 | 0.00 | 0.00 | 0.00 | 28 | 1012.4 |
| 20260504205849 | 23 | 118 | 3.2 | 22.5 | 0.00 | 0.00 | 0.00 | 29 | 1012.5 |
| 20260504205346 | 23 | 214 | 8.0 | 14.5 | 0.00 | 0.00 | 0.00 | 28 | 1012.5 |
| 20260504204844 | 23 | 288 | 6.4 | 16.1 | 0.00 | 0.00 | 0.00 | 28 | 1012.5 |
| 20260504204343 | 23 | 122 | 1.6 | 14.5 | 0.00 | 0.00 | 0.00 | 28 | 1012.5 |
| 20260504203842 | 23 | 281 | 8.0 | 16.1 | 0.00 | 0.00 | 0.00 | 28 | 1012.7 |
| 20260504203338 | 23 | 264 | 6.4 | 20.9 | 0.00 | 0.00 | 0.00 | 29 | 1012.5 |
| 20260504202834 | 23 | 270 | 4.8 | 16.1 | 0.00 | 0.00 | 0.00 | 28 | 1012.5 |
| 20260504202331 | 23 | 220 | 4.8 | 12.9 | 0.00 | 0.00 | 0.00 | 27 | 1012.7 |
| 20260504201828 | 23 | 235 | 3.2 | 16.1 | 0.00 | 0.00 | 0.00 | 29 | 1012.5 |
| 20260504201325 | 23 | 343 | 11.3 | 24.1 | 0.00 | 0.00 | 0.00 | 28 | 1012.5 |
| 20260504200822 | 23 | 301 | 11.3 | 14.5 | 0.00 | 0.00 | 0.00 | 28 | 1012.4 |
| 20260504200319 | 23 | 172 | 4.8 | 20.9 | 0.00 | 0.00 | 0.00 | 28 | 1012.7 |
| 20260504195815 | 23 | 150 | 12.9 | 16.1 | 0.00 | 0.00 | 0.00 | 29 | 1012.6 |
| 20260504195311 | 22 | 95 | 4.8 | 16.1 | 0.00 | 0.00 | 0.00 | 29 | 1012.7 |
| 20260504194808 | 23 | 282 | 9.7 | 20.9 | 0.00 | 0.00 | 0.00 | 28 | 1012.7 |
| 20260504194304 | 22 | 232 | 6.4 | 20.9 | 0.00 | 0.00 | 0.00 | 30 | 1012.9 |
| 20260504193800 | 23 | 288 | 4.8 | 16.1 | 0.00 | 0.00 | 0.00 | 28 | 1013.1 |
| 20260504193258 | 23 | 188 | 6.4 | 11.3 | 0.00 | 0.00 | 0.00 | 29 | 1012.9 |
| 20260504192756 | 22 | 257 | 3.2 | 11.3 | 0.00 | 0.00 | 0.00 | 31 | 1013.1 |
| 20260504192254 | 23 | 131 | 6.4 | 9.7 | 0.00 | 0.00 | 0.00 | 27 | 1013.2 |
| 20260504191753 | 23 | 177 | 6.4 | 11.3 | 0.00 | 0.00 | 0.00 | 28 | 1013.3 |
| 20260504191249 | 22 | 284 | 4.8 | 11.3 | 0.00 | 0.00 | 0.00 | 28 | 1013.2 |
| 20260504190745 | 22 | 55 | 9.7 | 22.5 | 0.00 | 0.00 | 0.00 | 28 | 1013.4 |
| 20260504190241 | 22 | 145 | 8.0 | 14.5 | 0.00 | 0.00 | 0.00 | 29 | 1013.6 |
| 20260504185737 | 22 | 252 | 16.1 | 20.9 | 0.00 | 0.00 | 0.00 | 27 | 1013.8 |
| 20260504185235 | 22 | 280 | 4.8 | 17.7 | 0.00 | 0.00 | 0.00 | 29 | 1013.6 |
| 20260504184731 | 22 | 256 | 11.3 | 22.5 | 0.00 | 0.00 | 0.00 | 28 | 1013.5 |
| 20260504184227 | 22 | 136 | 3.2 | 14.5 | 0.00 | 0.00 | 0.00 | 29 | 1013.8 |
| 20260504183723 | 22 | 192 | 1.6 | 14.5 | 0.00 | 0.00 | 0.00 | 30 | 1013.8 |
| 20260504183220 | 22 | 303 | 6.4 | 16.1 | 0.00 | 0.00 | 0.00 | 31 | 1013.9 |
| 20260504182718 | 22 | 248 | 8.0 | 11.3 | 0.00 | 0.00 | 0.00 | 29 | 1013.8 |
| 20260504182215 | 22 | 88 | 16.1 | 22.5 | 0.00 | 0.00 | 0.00 | 27 | 1014.0 |
| 20260504181712 | 21 | 168 | 4.8 | 17.7 | 0.00 | 0.00 | 0.00 | 31 | 1014.2 |
| 20260504181210 | 21 | 247 | 3.2 | 17.7 | 0.00 | 0.00 | 0.00 | 33 | 1014.2 |
| 20260504180709 | 21 | 260 | 4.8 | 14.5 | 0.00 | 0.00 | 0.00 | 32 | 1014.3 |
| 20260504180207 | 21 | 251 | 8.0 | 16.1 | 0.00 | 0.00 | 0.00 | 28 | 1014.3 |
| 20260504175704 | 21 | 146 | 9.7 | 12.9 | 0.00 | 0.00 | 0.00 | 30 | 1014.2 |
| 20260504175201 | 21 | 230 | 6.4 | 12.9 | 0.00 | 0.00 | 0.00 | 29 | 1014.4 |
| 20260504174659 | 21 | 244 | 9.7 | 20.9 | 0.00 | 0.00 | 0.00 | 29 | 1014.7 |
| 20260504174155 | 21 | 164 | 11.3 | 14.5 | 0.00 | 0.00 | 0.00 | 30 | 1014.5 |
| 20260504173652 | 21 | 104 | 4.8 | 14.5 | 0.00 | 0.00 | 0.00 | 30 | 1014.6 |
| 20260504173150 | 21 | 172 | 8.0 | 16.1 | 0.00 | 0.00 | 0.00 | 30 | 1014.6 |
| 20260504172646 | 21 | 201 | 4.8 | 12.9 | 0.00 | 0.00 | 0.00 | 34 | 1014.7 |
| 20260504172143 | 21 | 177 | 6.4 | 12.9 | 0.00 | 0.00 | 0.00 | 31 | 1014.9 |
| 20260504171639 | 21 | 196 | 3.2 | 11.3 | 0.00 | 0.00 | 0.00 | 33 | 1014.9 |
| 20260504171137 | 21 | 153 | 8.0 | 11.3 | 0.00 | 0.00 | 0.00 | 31 | 1015.0 |
| 20260504170633 | 20 | 229 | 1.6 | 4.8 | 0.00 | 0.00 | 0.00 | 35 | 1015.0 |
| 20260504170130 | 21 | 250 | 8.0 | 17.7 | 0.00 | 0.00 | 0.00 | 31 | 1015.1 |
| 20260504151016 | 18 | 86 | 6.4 | 17.7 | 0.00 | 0.00 | 0.00 | 38 | 1016.4 |
| 20260504150513 | 19 | 252 | 6.4 | 12.9 | 0.00 | 0.00 | 0.00 | 38 | 1016.2 |
| 20260504140939 | 17 | 191 | 3.2 | 9.7 | 0.00 | 0.00 | 0.00 | 49 | 1016.8 |
| 20260504140436 | 16 | 142 | 3.2 | 9.7 | 0.00 | 0.00 | 0.00 | 49 | 1016.7 |
| 20260504130400 | 15 | 315 | 4.8 | 9.7 | 0.00 | 0.00 | 0.00 | 51 | 1017.2 |
| 20260504110248 | 10 | 142 | 3.2 | 6.4 | 0.00 | 0.00 | 0.00 | 70 | 1017.9 |
| 20260504100211 | 8 | 239 | 1.6 | 4.8 | 0.00 | 0.00 | 0.00 | 69 | 1017.8 |
| 20260504090133 | 7 | 128 | 0.0 | 1.6 | 0.00 | 0.00 | 0.00 | 69 | 1017.8 |
| 20260504081604 | 6 | 111 | 0.0 | 0.0 | 0.00 | 0.00 | 0.00 | 72 | 1017.6 |
| 20260504081059 | 6 | 117 | 0.0 | 1.6 | 0.00 | 0.00 | 0.00 | 73 | 1017.7 |
| 20260504080556 | 6 | 104 | 0.0 | 0.0 | 0.00 | 0.00 | 0.00 | 73 | 1017.6 |